EW4881 Weather Reports


time (UTC)temp
F
wind
direction
speed
knots
gust
knots
rain 1hr
in
rain 24hr
in
rain mn
in
humidity
%
barometer
mb
20260503200353 61 265 4.3 10.4 0.00 0.00 0.00 34 979.5
20260503200251 62 257 4.3 10.4 0.00 0.00 0.00 33 979.5
20260503200149 62 258 4.3 10.4 0.00 0.00 0.00 33 979.3
20260503200142 62 273 4.3 9.6 0.00 0.00 0.00 33 979.3
20260503200050 62 240 4.3 9.6 0.00 0.00 0.00 33 979.4
20260503195949 62 313 4.3 9.6 0.00 0.00 0.00 33 979.5
20260503195851 62 343 4.3 9.6 0.00 0.00 0.00 33 979.4
20260503195750 62 332 3.5 9.6 0.00 0.00 0.00 34 979.4
20260503195651 62 302 4.3 8.7 0.00 0.00 0.00 34 979.5
20260503195643 62 302 4.3 8.7 0.00 0.00 0.00 34 979.5
20260503195546 61 209 4.3 13.0 0.00 0.00 0.00 34 979.5
20260503195445 61 279 4.3 13.0 0.00 0.00 0.00 34 979.5
20260503195344 61 240 4.3 13.0 0.00 0.00 0.00 35 979.5
20260503195245 61 269 4.3 13.0 0.00 0.00 0.00 34 979.6
20260503195142 61 257 4.3 13.0 0.00 0.00 0.00 34 979.6
20260503195037 61 296 4.3 13.0 0.00 0.00 0.00 34 979.6
20260503194936 61 199 4.3 13.0 0.00 0.00 0.00 34 979.7
20260503194837 61 244 4.3 13.0 0.00 0.00 0.00 34 979.7
20260503194736 62 195 4.3 13.0 0.00 0.00 0.00 33 979.5
20260503194636 62 201 4.3 13.0 0.00 0.00 0.00 33 979.7
20260503194531 62 325 4.3 13.0 0.00 0.00 0.00 33 979.7
20260503194431 62 195 4.3 13.0 0.00 0.00 0.00 34 979.8
20260503194330 62 207 4.3 13.0 0.00 0.00 0.00 34 979.8
20260503194230 62 206 5.2 13.0 0.00 0.00 0.00 34 979.8
20260503194130 62 209 5.2 13.0 0.00 0.00 0.00 34 979.8
20260503194024 62 286 5.2 13.0 0.00 0.00 0.00 34 979.8
20260503193924 62 276 5.2 13.0 0.00 0.00 0.00 32 979.8
20260503193825 62 289 5.2 13.0 0.00 0.00 0.00 32 979.8
20260503193725 62 274 4.3 13.0 0.00 0.00 0.00 31 979.9
20260503193624 63 328 4.3 13.0 0.00 0.00 0.00 30 979.8
20260503193521 63 324 4.3 11.3 0.00 0.00 0.00 30 979.9
20260503193417 63 325 3.5 11.3 0.00 0.00 0.00 30 979.9
20260503193317 63 336 4.3 11.3 0.00 0.00 0.00 30 979.9
20260503193220 63 331 3.5 11.3 0.00 0.00 0.00 30 979.9
20260503193118 63 275 4.3 11.3 0.00 0.00 0.00 30 979.9
20260503193012 63 209 4.3 17.4 0.00 0.00 0.00 31 979.9
20260503192914 63 289 4.3 17.4 0.00 0.00 0.00 32 979.9
20260503192812 62 277 4.3 17.4 0.00 0.00 0.00 32 979.9
20260503192713 62 273 4.3 17.4 0.00 0.00 0.00 32 979.9
20260503192613 62 331 4.3 17.4 0.00 0.00 0.00 32 979.9
20260503192509 62 259 4.3 17.4 0.00 0.00 0.00 32 979.9
20260503192405 62 311 4.3 17.4 0.00 0.00 0.00 32 980.0
20260503192306 62 254 4.3 17.4 0.00 0.00 0.00 32 980.1
20260503192207 62 292 4.3 17.4 0.00 0.00 0.00 33 980.1
20260503192105 62 257 4.3 17.4 0.00 0.00 0.00 33 980.2
20260503192000 62 306 4.3 11.3 0.00 0.00 0.00 34 980.0
20260503191859 61 204 5.2 12.2 0.00 0.00 0.00 34 980.1
20260503191800 61 270 5.2 12.2 0.00 0.00 0.00 33 980.1
20260503191701 61 194 5.2 12.2 0.00 0.00 0.00 34 980.1
20260503191600 61 336 5.2 12.2 0.00 0.00 0.00 33 980.1
20260503191455 61 268 5.2 12.2 0.00 0.00 0.00 33 980.1
20260503191353 61 306 5.2 12.2 0.00 0.00 0.00 34 980.2
20260503191254 61 299 4.3 12.2 0.00 0.00 0.00 34 980.2
20260503191154 61 256 4.3 12.2 0.00 0.00 0.00 34 980.3
20260503191053 61 259 4.3 12.2 0.00 0.00 0.00 34 980.3
20260503190949 61 302 3.5 12.2 0.00 0.00 0.00 34 980.3
20260503190847 60 329 3.5 11.3 0.00 0.00 0.00 37 980.3
20260503190747 60 228 3.5 11.3 0.00 0.00 0.00 35 980.2
20260503190648 60 36 3.5 11.3 0.00 0.00 0.00 35 980.2
20260503190547 60 265 3.5 11.3 0.00 0.00 0.00 35 980.2
20260503190441 60 281 3.5 11.3 0.00 0.00 0.00 35 980.3
20260503190341 60 200 3.5 11.3 0.00 0.00 0.00 36 980.2
20260503190243 60 211 3.5 11.3 0.00 0.00 0.00 36 980.2
20260503190141 60 252 3.5 11.3 0.00 0.00 0.00 37 980.3
20260503190042 60 332 4.3 11.3 0.00 0.00 0.00 37 980.3
20260503185937 60 312 4.3 11.3 0.00 0.00 0.00 36 980.3
20260503185835 60 257 4.3 11.3 0.00 0.00 0.00 36 980.3
20260503185735 60 300 4.3 11.3 0.00 0.00 0.00 36 980.3
20260503185637 60 231 4.3 11.3 0.00 0.00 0.00 35 980.4
20260503185535 60 253 4.3 11.3 0.00 0.00 0.00 35 980.4
20260503185434 60 262 4.3 11.3 0.00 0.00 0.00 35 980.4
20260503185333 60 312 4.3 11.3 0.00 0.00 0.00 35 980.4
20260503185234 60 274 4.3 13.0 0.00 0.00 0.00 34 980.3
20260503185133 60 315 4.3 13.0 0.00 0.00 0.00 37 980.4
20260503185030 60 283 4.3 13.0 0.00 0.00 0.00 37 980.4
20260503184931 60 244 4.3 13.0 0.00 0.00 0.00 36 980.5
20260503184828 60 304 5.2 13.0 0.00 0.00 0.00 37 980.4
20260503184727 60 317 5.2 13.0 0.00 0.00 0.00 36 980.5
20260503184625 60 296 5.2 13.0 0.00 0.00 0.00 36 980.5
20260503184523 60 355 5.2 13.0 0.00 0.00 0.00 35 980.5
20260503184418 60 294 5.2 13.0 0.00 0.00 0.00 35 980.6
20260503184319 60 240 4.3 13.0 0.00 0.00 0.00 35 980.5
20260503184238 60 267 4.3 10.4 0.00 0.00 0.00 34 980.5
20260503184218 60 340 4.3 10.4 0.00 0.00 0.00 36 980.5
20260503184137 60 314 4.3 10.4 0.00 0.00 0.00 36 980.5
20260503184122 60 267 4.3 10.4 0.00 0.00 0.00 34 980.5
20260503183914 61 268 3.5 10.4 0.00 0.00 0.00 34 980.5
20260503183811 61 251 3.5 9.6 0.00 0.00 0.00 35 980.5
20260503183713 61 278 3.5 9.6 0.00 0.00 0.00 35 980.5
20260503183613 61 280 3.5 9.6 0.00 0.00 0.00 35 980.6
20260503183513 61 234 3.5 9.6 0.00 0.00 0.00 35 980.6
20260503183310 61 314 3.5 12.2 0.00 0.00 0.00 35 980.6
20260503183225 61 263 4.3 13.0 0.00 0.00 0.00 34 980.6
20260503183210 61 307 4.3 13.0 0.00 0.00 0.00 34 980.6
20260503183125 61 289 4.3 13.0 0.00 0.00 0.00 34 980.6
20260503183110 61 263 4.3 13.0 0.00 0.00 0.00 34 980.6
20260503182901 61 185 3.5 13.0 0.00 0.00 0.00 35 980.6
20260503182800 61 273 4.3 13.0 0.00 0.00 0.00 35 980.6
20260503182700 61 304 4.3 13.0 0.00 0.00 0.00 35 980.5
20260503182559 61 286 4.3 13.0 0.00 0.00 0.00 34 980.6
20260503182501 61 237 4.3 13.0 0.00 0.00 0.00 34 980.6
20260503182355 61 333 4.3 13.0 0.00 0.00 0.00 34 980.6
20260503182255 61 297 3.5 13.0 0.00 0.00 0.00 35 980.7
20260503182154 61 294 3.5 9.6 0.00 0.00 0.00 35 980.6
20260503182054 61 194 3.5 9.6 0.00 0.00 0.00 34 980.7
20260503181954 61 324 3.5 9.6 0.00 0.00 0.00 34 980.7
20260503181850 61 305 3.5 9.6 0.00 0.00 0.00 34 980.7
20260503181748 61 293 3.5 9.6 0.00 0.00 0.00 35 980.8
20260503181647 61 292 3.5 9.6 0.00 0.00 0.00 34 980.8
20260503181547 61 273 3.5 8.7 0.00 0.00 0.00 36 980.8
20260503181448 60 315 3.5 10.4 0.00 0.00 0.00 36 980.8
20260503181341 60 257 3.5 10.4 0.00 0.00 0.00 35 980.8
20260503181242 60 313 3.5 10.4 0.00 0.00 0.00 35 980.8
20260503181142 60 342 4.3 10.4 0.00 0.00 0.00 35 980.8
20260503181043 60 331 4.3 10.4 0.00 0.00 0.00 35 980.8
20260503180941 60 263 4.3 10.4 0.00 0.00 0.00 36 980.8
20260503180737 60 313 4.3 10.4 0.00 0.00 0.00 35 980.7
20260503180638 60 225 4.3 11.3 0.00 0.00 0.00 36 980.8
20260503180539 60 160 4.3 11.3 0.00 0.00 0.00 35 980.8
20260503180436 59 316 4.3 11.3 0.00 0.00 0.00 35 980.8
20260503180333 59 310 4.3 11.3 0.00 0.00 0.00 36 981.0
20260503180230 59 349 4.3 11.3 0.00 0.00 0.00 36 981.0
20260503180131 59 320 4.3 13.0 0.00 0.00 0.00 36 981.1
20260503180031 59 230 4.3 13.0 0.00 0.00 0.00 35 980.9
20260503175930 59 298 4.3 13.0 0.00 0.00 0.00 35 981.0
20260503175827 60 236 4.3 13.0 0.00 0.00 0.00 36 981.0
20260503175728 60 272 4.3 13.0 0.00 0.00 0.00 36 981.0
20260503175627 60 329 4.3 13.0 0.00 0.00 0.00 36 981.0
20260503175526 60 263 4.3 13.0 0.00 0.00 0.00 36 981.1
20260503175424 60 242 4.3 13.0 0.00 0.00 0.00 36 981.1
20260503175318 60 333 4.3 13.0 0.00 0.00 0.00 34 981.1
20260503175217 60 262 5.2 13.0 0.00 0.00 0.00 34 981.1
20260503175119 60 271 4.3 13.0 0.00 0.00 0.00 35 981.2
20260503175018 60 292 4.3 13.0 0.00 0.00 0.00 36 981.2
20260503174918 60 329 4.3 13.0 0.00 0.00 0.00 36 981.1
20260503174812 60 316 4.3 13.0 0.00 0.00 0.00 35 981.1
20260503174712 60 238 4.3 13.0 0.00 0.00 0.00 36 981.1
20260503174612 60 217 4.3 13.0 0.00 0.00 0.00 36 981.2
20260503174512 59 219 4.3 13.0 0.00 0.00 0.00 37 981.2
20260503174412 59 244 4.3 13.0 0.00 0.00 0.00 36 981.2
20260503174307 59 269 3.5 13.0 0.00 0.00 0.00 36 981.2
20260503174206 59 196 4.3 13.0 0.00 0.00 0.00 36 981.2
20260503174105 59 304 4.3 11.3 0.00 0.00 0.00 36 981.2
20260503174005 59 269 4.3 11.3 0.00 0.00 0.00 37 981.3
20260503173905 59 284 4.3 11.3 0.00 0.00 0.00 37 981.2
20260503173800 59 282 3.5 11.3 0.00 0.00 0.00 36 981.2
20260503173700 59 284 4.3 11.3 0.00 0.00 0.00 36 981.3
20260503173559 59 241 4.3 11.3 0.00 0.00 0.00 35 981.2
20260503173500 59 239 4.3 11.3 0.00 0.00 0.00 36 981.2
20260503173400 59 232 3.5 11.3 0.00 0.00 0.00 36 981.2
20260503173253 59 207 4.3 11.3 0.00 0.00 0.00 35 981.3
20260503173153 59 171 4.3 11.3 0.00 0.00 0.00 35 981.3
20260503173055 59 296 3.5 11.3 0.00 0.00 0.00 36 981.3
20260503172955 59 251 3.5 11.3 0.00 0.00 0.00 35 981.3
20260503172855 59 302 4.3 11.3 0.00 0.00 0.00 36 981.3
20260503172749 59 268 4.3 11.3 0.00 0.00 0.00 36 981.3
20260503172647 59 254 3.5 11.3 0.00 0.00 0.00 38 981.3
20260503172547 59 323 3.5 11.3 0.00 0.00 0.00 36 981.3
20260503172447 59 252 3.5 11.3 0.00 0.00 0.00 38 981.3
20260503172347 59 252 4.3 11.3 0.00 0.00 0.00 37 981.3
20260503172242 59 341 3.5 11.3 0.00 0.00 0.00 37 981.4
20260503172142 59 312 3.5 10.4 0.00 0.00 0.00 37 981.4
20260503172042 59 232 3.5 10.4 0.00 0.00 0.00 35 981.4
20260503171942 59 316 4.3 10.4 0.00 0.00 0.00 36 981.4
20260503171844 59 325 3.5 10.4 0.00 0.00 0.00 36 981.4
20260503171737 59 306 3.5 10.4 0.00 0.00 0.00 37 981.3
20260503171636 59 343 3.5 10.4 0.00 0.00 0.00 36 981.4
20260503171535 59 280 3.5 10.4 0.00 0.00 0.00 36 981.3
20260503171437 58 175 3.5 10.4 0.00 0.00 0.00 38 981.5
20260503171336 58 292 3.5 12.2 0.00 0.00 0.00 38 981.5
20260503171231 58 294 3.5 12.2 0.00 0.00 0.00 37 981.5
20260503171132 58 318 4.3 12.2 0.00 0.00 0.00 37 981.5
20260503171031 58 317 4.3 12.2 0.00 0.00 0.00 38 981.5
20260503170932 58 296 3.5 12.2 0.00 0.00 0.00 38 981.4
20260503170830 58 264 3.5 12.2 0.00 0.00 0.00 37 981.5
20260503170802 57 254 4.3 11.3 0.00 0.00 0.00 37 981.6
20260503170724 58 258 3.5 12.2 0.00 0.00 0.00 39 981.5
20260503170657 57 242 3.5 12.2 0.00 0.00 0.00 39 981.5
20260503170524 57 263 3.5 12.2 0.00 0.00 0.00 39 981.5
20260503170443 57 277 4.3 12.2 0.00 0.00 0.00 37 981.5
20260503170429 57 254 4.3 11.3 0.00 0.00 0.00 37 981.6
20260503170217 57 236 4.3 11.3 0.00 0.00 0.00 37 981.6
20260503170117 57 281 4.3 12.2 0.00 0.00 0.00 37 981.7
20260503160212 55 266 2.6 8.7 0.00 0.00 0.00 38 982.3
20260503160107 55 257 3.5 8.7 0.00 0.00 0.00 38 982.2
20260503151006 54 306 3.5 9.6 0.00 0.00 0.00 37 982.5
20260503150905 54 325 3.5 9.6 0.00 0.00 0.00 38 982.5
20260503150807 54 298 3.5 9.6 0.00 0.00 0.00 38 982.5
20260503150733 54 258 3.5 9.6 0.00 0.00 0.00 40 982.5
20260503150706 54 308 2.6 9.6 0.00 0.00 0.00 40 982.5
20260503150606 54 233 3.5 9.6 0.00 0.00 0.00 39 982.5
20260503150503 54 240 3.5 9.6 0.00 0.00 0.00 38 982.5
20260503150403 55 277 3.5 9.6 0.00 0.00 0.00 40 982.5
20260503150304 55 181 2.6 8.7 0.00 0.00 0.00 42 982.5
20260503150234 54 240 2.6 8.7 0.00 0.00 0.00 42 982.5
20260503150203 54 202 3.5 8.7 0.00 0.00 0.00 42 982.5
20260503140244 50 155 3.5 9.6 0.00 0.00 0.00 50 982.9
20260503140146 50 342 3.5 9.6 0.00 0.00 0.00 51 982.9
20260503131352 44 306 2.6 9.6 0.00 0.03 0.00 73 983.2
20260503131245 43 306 2.6 9.6 0.00 0.04 0.00 73 983.2
20260503131147 43 284 1.7 9.6 0.00 0.04 0.00 75 983.2
20260503131046 43 250 1.7 6.1 0.00 0.04 0.00 75 983.2
20260503130946 43 287 1.7 6.1 0.00 0.04 0.00 75 983.2
20260503130846 43 234 1.7 6.1 0.00 0.04 0.00 75 983.2
20260503130743 42 250 1.7 6.1 0.00 0.04 0.00 77 983.2
20260503130638 42 284 1.7 6.1 0.00 0.04 0.00 77 983.2
20260503130540 42 319 1.7 4.3 0.00 0.04 0.00 78 983.2
20260503130439 42 287 1.7 5.2 0.00 0.04 0.00 78 983.2
20260503130340 42 303 1.7 5.2 0.00 0.05 0.00 79 983.2
20260503130236 41 310 1.7 6.1 0.00 0.05 0.00 80 983.2
20260503130135 41 264 1.7 6.1 0.00 0.05 0.00 80 983.2
20260503120129 31 76 0.0 0.0 0.00 0.08 0.00 94 983.0
20260503110728 29 76 0.0 0.0 0.00 0.08 0.00 93 982.6
20260503110624 29 76 0.0 0.0 0.00 0.08 0.00 93 982.6
20260503110528 29 76 0.0 0.0 0.00 0.08 0.00 93 982.6
20260503110427 29 76 0.0 0.0 0.00 0.08 0.00 93 982.6
20260503110328 29 76 0.0 0.0 0.00 0.08 0.00 93 982.6
20260503110227 29 76 0.0 0.0 0.00 0.08 0.00 93 982.6
20260503110129 29 76 0.0 0.0 0.00 0.08 0.00 93 982.6
20260503110124 29 76 0.0 0.0 0.00 0.08 0.00 93 982.6
20260503100235 30 316 0.0 0.0 0.00 0.08 0.00 92 982.1
20260503100114 30 316 0.0 0.0 0.00 0.08 0.00 92 982.1
20260503090438 31 316 0.0 0.0 0.00 0.08 0.00 91 982.0
20260503090334 31 316 0.0 0.0 0.00 0.08 0.00 91 982.0
20260503090233 31 316 0.0 0.0 0.00 0.08 0.00 91 982.0
20260503090109 31 316 0.0 0.0 0.00 0.08 0.00 91 982.0
20260503081605 32 316 0.0 0.0 0.00 0.08 0.00 90 982.0
20260503081540 32 316 0.0 0.0 0.00 0.08 0.00 90 982.0
20260503081437 32 316 0.0 0.0 0.00 0.08 0.00 90 982.0
20260503081337 32 316 0.0 0.0 0.00 0.08 0.00 90 982.0
20260503081235 32 316 0.0 0.0 0.00 0.08 0.00 90 981.9
20260503081107 32 316 0.0 0.0 0.00 0.08 0.00 90 982.0
20260503081028 32 316 0.0 0.0 0.00 0.08 0.00 90 982.0
20260503080928 32 316 0.0 0.0 0.00 0.08 0.00 90 982.0
20260503080827 32 316 0.0 0.0 0.00 0.08 0.00 90 982.0
20260503080728 32 316 0.0 0.0 0.00 0.08 0.00 90 982.0
20260503080604 32 316 0.0 0.0 0.00 0.08 0.00 90 982.0
20260503080521 33 316 0.0 0.0 0.00 0.08 0.00 90 982.0
20260503080422 33 316 0.0 0.0 0.00 0.08 0.00 90 982.0
20260503080327 33 316 0.0 0.0 0.00 0.08 0.00 90 981.9
20260503080320 33 316 0.0 0.0 0.00 0.08 0.00 90 982.0
20260503080221 33 316 0.0 0.0 0.00 0.08 0.00 90 981.9
20260503080208 33 316 0.0 0.0 0.00 0.08 0.00 90 981.9
20260503072941 34 316 0.0 0.0 0.00 0.08 0.00 90 981.8
20260503072838 34 316 0.0 0.0 0.00 0.08 0.00 90 981.7
20260503072739 34 316 0.0 0.0 0.00 0.08 0.00 90 981.7
20260503072637 34 316 0.0 0.0 0.00 0.08 0.00 90 981.7
20260503072535 34 316 0.0 0.0 0.00 0.08 0.00 90 981.7
20260503072434 34 316 0.0 0.0 0.00 0.08 0.00 90 981.7
20260503072333 34 316 0.0 0.0 0.00 0.08 0.00 90 981.7
20260503072234 34 316 0.0 0.0 0.00 0.08 0.00 90 981.7
20260503072130 34 316 0.0 0.0 0.00 0.08 0.00 90 981.7
20260503072029 34 316 0.0 0.0 0.00 0.08 0.00 90 981.6
20260503071923 34 316 0.0 0.0 0.00 0.08 0.00 90 981.7
20260503071823 34 316 0.0 0.0 0.00 0.08 0.00 90 981.6
20260503071722 34 316 0.0 0.0 0.00 0.08 0.00 90 981.7
20260503071623 34 316 0.0 0.0 0.00 0.08 0.00 90 981.6
20260503071523 34 316 0.0 0.0 0.00 0.08 0.00 90 981.7
20260503071416 34 316 0.0 0.0 0.00 0.08 0.00 90 981.7
20260503071317 34 316 0.0 0.0 0.00 0.08 0.00 90 981.7
20260503071218 34 316 0.0 0.0 0.00 0.08 0.00 90 981.7
20260503071116 34 316 0.0 0.0 0.00 0.08 0.00 90 981.7
20260503071016 34 316 0.0 0.0 0.00 0.08 0.00 90 981.7
20260503070915 34 316 0.0 0.0 0.00 0.08 0.00 90 981.6
20260503070815 34 316 0.0 0.0 0.00 0.08 0.00 90 981.7
20260503070714 34 316 0.0 0.0 0.00 0.08 0.00 90 981.7
20260503070612 34 316 0.0 0.0 0.00 0.08 0.00 90 981.7
20260503070511 34 316 0.0 0.0 0.00 0.08 0.00 90 981.7
20260503070452 35 316 0.0 0.0 0.00 0.08 0.00 90 981.7
20260503070411 34 316 0.0 0.0 0.00 0.08 0.00 90 981.7
20260503070341 34 316 0.0 0.0 0.00 0.08 0.00 90 981.7
20260503070209 35 316 0.0 0.0 0.00 0.08 0.00 90 981.7
20260503070124 35 316 0.0 0.0 0.00 0.08 0.00 90 981.7
20260503070109 35 316 0.0 0.0 0.00 0.08 0.00 90 981.7
20260503060258 35 316 0.0 0.0 0.00 0.08 0.00 90 981.9
20260503060158 35 316 0.0 0.0 0.00 0.08 0.00 90 981.9
20260503055044 35 316 0.0 0.0 0.00 0.08 0.00 90 981.9
20260503054943 35 316 0.0 0.0 0.00 0.08 0.00 90 981.9
20260503054840 35 316 0.0 0.0 0.00 0.08 0.00 90 981.9
20260503054739 35 316 0.0 0.0 0.00 0.08 0.00 90 981.9
20260503054639 35 316 0.0 0.0 0.00 0.08 0.00 90 981.9
20260503054539 35 316 0.0 0.0 0.00 0.08 0.00 90 981.9
20260503054438 35 316 0.0 0.0 0.00 0.08 0.00 90 981.9
20260503054335 35 316 0.0 0.0 0.00 0.08 0.00 90 981.9
20260503054235 35 316 0.0 0.0 0.00 0.08 0.00 90 981.9
20260503054133 35 316 0.0 0.0 0.00 0.08 0.00 90 981.9
20260503054033 35 316 0.0 0.0 0.00 0.08 0.00 90 981.9
20260503053931 35 316 0.0 0.0 0.00 0.08 0.00 90 981.9
20260503053829 35 316 0.0 0.0 0.00 0.08 0.00 90 981.9
20260503053727 35 316 0.0 0.0 0.00 0.08 0.00 90 981.9
20260503053628 35 316 0.0 0.0 0.00 0.08 0.00 90 981.9
20260503053526 35 316 0.0 0.0 0.00 0.08 0.00 90 981.9
20260503053425 35 316 0.0 0.0 0.00 0.08 0.00 90 981.9
20260503053322 35 316 0.0 0.0 0.00 0.08 0.00 90 981.9
20260503053219 35 316 0.0 0.0 0.00 0.08 0.00 90 982.0
20260503053117 35 316 0.0 0.0 0.00 0.08 0.00 90 981.9
20260503053016 35 316 0.0 0.0 0.00 0.08 0.00 90 982.0
20260503052917 35 316 0.0 0.0 0.00 0.08 0.00 90 982.0
20260503052817 35 316 0.0 0.0 0.00 0.08 0.00 90 982.0
20260503052715 35 316 0.0 0.0 0.00 0.08 0.00 89 982.0
20260503052615 35 316 0.0 0.0 0.00 0.08 0.00 89 982.0
20260503052514 35 316 0.0 0.0 0.00 0.08 0.00 89 982.1
20260503052414 35 316 0.0 0.0 0.00 0.08 0.00 89 982.0
20260503052311 35 316 0.0 0.0 0.00 0.08 0.00 89 982.1
20260503052209 35 316 0.0 0.0 0.00 0.08 0.00 89 982.1
20260503052108 35 316 0.0 0.0 0.00 0.08 0.00 89 982.0
20260503052009 35 316 0.0 0.0 0.00 0.08 0.00 89 982.0
20260503051906 35 316 0.0 0.0 0.00 0.08 0.00 89 982.0
20260503051805 35 316 0.0 0.0 0.00 0.08 0.00 89 982.1
20260503051704 35 316 0.0 0.0 0.00 0.08 0.00 89 982.0
20260503051603 35 316 0.0 0.0 0.00 0.08 0.00 89 982.0
20260503051504 35 316 0.0 0.0 0.00 0.08 0.00 89 982.1
20260503051402 35 316 0.0 0.0 0.00 0.08 0.00 89 982.0
20260503051259 35 316 0.0 0.0 0.00 0.08 0.00 89 982.1
20260503051155 35 316 0.0 0.0 0.00 0.08 0.00 89 982.0
20260503051056 35 316 0.0 0.0 0.00 0.08 0.00 89 982.0
20260503050954 35 316 0.0 0.0 0.00 0.08 0.00 89 982.0
20260503050855 35 316 0.0 0.0 0.00 0.08 0.00 89 982.0
20260503050753 35 316 0.0 0.0 0.00 0.08 0.00 89 982.0
20260503050652 35 316 0.0 0.0 0.00 0.08 0.00 89 982.1
20260503050550 35 316 0.0 0.0 0.00 0.08 0.00 89 982.0
20260503050449 35 316 0.0 0.0 0.00 0.08 0.00 89 982.0
20260503050350 35 316 0.0 0.0 0.00 0.08 0.00 89 982.1
20260503050248 35 316 0.0 0.0 0.00 0.08 0.00 89 982.1
20260503050147 35 316 0.0 0.0 0.00 0.08 0.00 89 982.1
20260503050046 35 316 0.0 0.0 0.00 0.08 0.00 89 982.1
20260503045946 35 316 0.0 0.0 0.00 0.08 0.00 89 982.1
20260503045843 35 316 0.0 0.0 0.00 0.08 0.00 89 982.1
20260503045741 35 316 0.0 0.0 0.00 0.08 0.00 89 982.1
20260503045642 35 316 0.0 0.0 0.00 0.08 0.00 89 982.1
20260503045538 35 316 0.0 0.0 0.00 0.08 0.00 89 982.1
20260503045438 35 316 0.0 0.0 0.00 0.08 0.00 89 982.1
20260503045338 35 316 0.0 0.0 0.00 0.08 0.00 88 982.1
20260503045235 35 316 0.0 0.0 0.00 0.08 0.00 88 982.1
20260503045133 35 316 0.0 0.0 0.00 0.08 0.00 88 982.1
20260503045035 35 316 0.0 0.0 0.00 0.08 0.00 88 982.1
20260503044951 35 316 0.0 0.0 0.00 0.08 0.00 88 982.2
20260503044932 35 316 0.0 0.0 0.00 0.08 0.00 88 982.2
20260503044849 35 316 0.0 0.0 0.00 0.08 0.00 88 982.1
20260503044835 35 316 0.0 0.0 0.00 0.08 0.00 88 982.2
20260503044628 35 316 0.0 0.0 0.00 0.08 0.00 88 982.2
20260503044526 35 316 0.0 0.0 0.00 0.08 0.00 88 982.2
20260503044427 35 316 0.0 0.0 0.00 0.08 0.00 88 982.2
20260503044325 35 316 0.0 0.0 0.00 0.08 0.00 88 982.2
20260503044224 35 316 0.0 0.0 0.00 0.08 0.00 88 982.2
20260503044118 35 316 0.0 0.0 0.00 0.08 0.00 88 982.2
20260503044019 35 316 0.0 0.0 0.00 0.08 0.00 88 982.2
20260503043919 35 316 0.0 0.0 0.00 0.08 0.00 88 982.2
20260503043819 35 316 0.0 0.0 0.00 0.08 0.00 88 982.2
20260503043717 35 316 0.0 0.0 0.00 0.08 0.00 87 982.2
20260503043616 35 316 0.0 0.0 0.00 0.08 0.00 87 982.2
20260503043514 35 316 0.0 0.0 0.00 0.08 0.00 87 982.2
20260503043415 35 316 0.0 0.0 0.00 0.08 0.00 87 982.2
20260503043313 35 316 0.0 0.0 0.00 0.08 0.00 87 982.2
20260503043210 35 316 0.0 0.0 0.00 0.08 0.00 87 982.2
20260503043106 35 316 0.0 0.0 0.00 0.08 0.00 87 982.2
20260503043005 35 316 0.0 0.0 0.00 0.08 0.00 87 982.2
20260503042805 35 316 0.0 0.0 0.00 0.08 0.00 87 982.2
20260503042706 35 316 0.0 0.0 0.00 0.08 0.00 87 982.3
20260503042605 35 316 0.0 0.0 0.00 0.08 0.00 86 982.3
20260503042502 35 316 0.0 0.0 0.00 0.08 0.00 86 982.2
20260503042402 36 316 0.0 0.0 0.00 0.08 0.00 86 982.3
20260503042301 35 316 0.0 0.0 0.00 0.08 0.00 86 982.2
20260503042211 35 316 0.0 0.0 0.00 0.08 0.00 86 982.2
20260503042159 35 316 0.0 0.0 0.00 0.08 0.00 86 982.2
20260503042056 36 316 0.0 0.0 0.00 0.08 0.00 86 982.3
20260503041957 36 316 0.0 0.0 0.00 0.08 0.00 86 982.2
20260503041856 36 316 0.0 0.0 0.00 0.08 0.00 86 982.3
20260503041755 36 316 0.0 0.0 0.00 0.08 0.00 86 982.2
20260503041710 36 316 0.0 0.0 0.00 0.08 0.00 86 982.2
20260503041654 36 316 0.0 0.0 0.00 0.08 0.00 86 982.2
20260503041556 36 316 0.0 0.0 0.00 0.08 0.00 86 982.2
20260503041455 36 316 0.0 0.0 0.00 0.08 0.00 86 982.2
20260503041354 36 316 0.0 0.0 0.00 0.08 0.00 86 982.2
20260503041252 36 316 0.0 0.0 0.00 0.08 0.00 86 982.2
20260503041210 36 316 0.0 0.0 0.00 0.08 0.00 86 982.2
20260503041153 36 316 0.0 0.0 0.00 0.08 0.00 86 982.2
20260503041050 36 316 0.0 0.0 0.00 0.08 0.00 86 982.2
20260503040949 36 316 0.0 0.0 0.00 0.08 0.00 86 982.2
20260503040847 36 316 0.0 0.0 0.00 0.08 0.00 86 982.2
20260503040746 36 316 0.0 0.0 0.00 0.08 0.00 85 982.2
20260503040711 36 316 0.0 0.0 0.00 0.08 0.00 85 982.2
20260503040647 36 316 0.0 0.0 0.00 0.08 0.00 85 982.2
20260503040545 36 316 0.0 0.0 0.00 0.08 0.00 85 982.2
20260503040443 36 316 0.0 0.0 0.00 0.08 0.00 85 982.2
20260503040343 36 316 0.0 0.0 0.00 0.08 0.00 85 982.3
20260503040243 36 316 0.0 0.0 0.00 0.08 0.00 85 982.3
20260503040210 36 316 0.0 0.0 0.00 0.08 0.00 85 982.3
20260503040137 36 316 0.0 0.0 0.00 0.08 0.00 85 982.3
20260503040032 36 316 0.0 0.0 0.00 0.08 0.00 85 982.3
20260503035931 36 316 0.0 0.0 0.00 0.08 0.08 85 982.3
20260503035925 36 316 0.0 0.0 0.00 0.08 0.08 85 982.3
20260503035829 36 316 0.0 0.0 0.00 0.08 0.08 85 982.3
20260503035815 36 316 0.0 0.0 0.00 0.08 0.08 85 982.3
20260503035628 36 316 0.0 0.0 0.00 0.08 0.08 85 982.3
20260503035522 36 316 0.0 0.0 0.00 0.08 0.08 84 982.3
20260503035428 36 316 0.0 0.0 0.00 0.08 0.08 84 982.2
20260503035422 36 316 0.0 0.0 0.00 0.08 0.08 84 982.3
20260503035327 36 316 0.0 0.0 0.00 0.08 0.08 84 982.3
20260503035314 36 316 0.0 0.0 0.00 0.08 0.08 84 982.2
20260503035123 36 316 0.0 0.0 0.00 0.08 0.08 84 982.2
20260503035023 36 316 0.0 0.0 0.00 0.08 0.08 84 982.2
20260503034924 36 316 0.0 0.0 0.00 0.08 0.08 84 982.3
20260503034823 36 316 0.0 0.0 0.00 0.08 0.08 84 982.3
20260503034708 36 316 0.0 0.0 0.00 0.08 0.08 84 982.3
20260503034623 36 316 0.0 0.0 0.00 0.08 0.08 84 982.3
20260503034523 36 316 0.0 0.0 0.00 0.08 0.08 84 982.2
20260503034423 36 316 0.0 0.0 0.00 0.08 0.08 84 982.2
20260503034324 36 316 0.0 0.0 0.00 0.08 0.08 83 982.2
20260503034207 37 316 0.0 0.0 0.00 0.08 0.08 83 982.2
20260503034123 37 316 0.0 0.0 0.00 0.08 0.08 83 982.2
20260503034024 37 316 0.0 0.0 0.00 0.08 0.08 83 982.2
20260503033923 37 316 0.0 0.0 0.00 0.08 0.08 83 982.2
20260503033822 37 316 0.0 0.0 0.00 0.08 0.08 83 982.2
20260503033707 37 316 0.0 0.0 0.00 0.08 0.08 83 982.2
20260503033620 37 316 0.0 0.0 0.00 0.08 0.08 83 982.2
20260503033518 37 316 0.0 0.0 0.00 0.08 0.08 83 982.2
20260503033419 37 316 0.0 0.0 0.00 0.08 0.08 83 982.2
20260503033318 37 316 0.0 0.0 0.00 0.08 0.08 82 982.2
20260503033208 37 316 0.0 0.0 0.00 0.08 0.08 82 982.2
20260503033112 37 316 0.0 0.0 0.00 0.08 0.08 82 982.2
20260503033007 37 316 0.0 0.0 0.00 0.08 0.08 82 982.2
20260503032908 37 316 0.0 0.0 0.00 0.08 0.08 81 982.2
20260503032808 37 316 0.0 0.0 0.00 0.08 0.08 81 982.2
20260503032707 37 316 0.0 0.0 0.00 0.08 0.08 81 982.2
20260503032602 37 316 0.0 0.0 0.00 0.08 0.08 81 982.2
20260503032502 37 316 0.0 0.0 0.00 0.08 0.08 81 982.2
20260503032401 37 316 0.0 0.0 0.00 0.08 0.08 81 982.2
20260503032301 37 316 0.0 0.0 0.00 0.08 0.08 81 982.2
20260503032201 37 316 0.0 0.0 0.00 0.08 0.08 81 982.2
20260503032056 37 316 0.0 0.0 0.00 0.08 0.08 81 982.2
20260503031955 38 316 0.0 0.0 0.00 0.08 0.08 81 982.2
20260503031852 38 316 0.0 0.0 0.00 0.08 0.08 81 982.2
20260503031750 38 316 0.0 0.0 0.00 0.08 0.08 81 982.2
20260503031648 38 316 0.0 0.0 0.00 0.08 0.08 82 982.2
20260503031547 38 316 0.0 0.0 0.00 0.08 0.08 82 982.2
20260503031446 38 316 0.0 0.0 0.00 0.08 0.08 82 982.1
20260503031346 38 316 0.0 0.0 0.00 0.08 0.08 81 982.2
20260503031242 38 316 0.0 0.0 0.00 0.08 0.08 81 982.2
20260503031142 38 316 0.0 0.0 0.00 0.08 0.08 81 982.2
20260503031039 38 316 0.0 0.0 0.00 0.08 0.08 81 982.2
20260503030938 38 316 0.0 0.0 0.00 0.08 0.08 81 982.2
20260503030840 38 316 0.0 0.0 0.00 0.08 0.08 81 982.2
20260503030737 38 316 0.0 0.0 0.00 0.08 0.08 81 982.2
20260503030634 38 316 0.0 0.0 0.00 0.08 0.08 81 982.3
20260503030534 38 316 0.0 0.0 0.00 0.08 0.08 81 982.2
20260503030432 38 316 0.0 0.0 0.00 0.08 0.08 81 982.3
20260503030332 38 316 0.0 0.0 0.00 0.08 0.08 81 982.2
20260503030228 38 316 0.0 0.0 0.00 0.08 0.08 81 982.2
20260503030128 38 316 0.0 0.0 0.00 0.08 0.08 81 982.2
20260503030027 38 316 0.0 0.0 0.00 0.08 0.08 81 982.2
20260503025926 39 316 0.0 0.0 0.00 0.08 0.08 81 982.2
20260503025824 39 316 0.0 0.0 0.00 0.08 0.08 81 982.2
20260503025724 39 316 0.0 0.0 0.00 0.08 0.08 81 982.2
20260503025621 39 316 0.0 0.0 0.00 0.08 0.08 81 982.2
20260503025520 39 316 0.0 0.0 0.00 0.08 0.08 81 982.3
20260503025419 39 316 0.0 0.0 0.00 0.08 0.08 81 982.2
20260503025320 39 316 0.0 0.0 0.00 0.08 0.08 80 982.2
20260503025219 39 316 0.0 0.0 0.00 0.08 0.08 80 982.3
20260503025124 39 316 0.0 0.0 0.00 0.08 0.08 80 982.3
20260503025119 39 316 0.0 0.0 0.00 0.08 0.08 80 982.2
20260503025015 39 316 0.0 0.0 0.00 0.08 0.08 80 982.3
20260503024912 39 316 0.0 0.0 0.00 0.08 0.08 80 982.2
20260503024845 39 316 0.0 0.0 0.00 0.08 0.08 80 982.3
20260503024813 39 316 0.0 0.0 0.00 0.08 0.08 80 982.2
20260503024735 39 316 0.0 0.0 0.00 0.08 0.08 80 982.2
20260503024614 39 316 0.0 0.0 0.00 0.08 0.08 80 982.3
20260503024512 39 316 0.0 0.0 0.00 0.08 0.08 79 982.3
20260503024412 39 316 0.0 0.0 0.00 0.08 0.08 79 982.3
20260503024311 39 316 0.0 0.0 0.00 0.08 0.08 79 982.3
20260503024209 39 316 0.0 0.0 0.00 0.08 0.08 79 982.3
20260503024107 39 316 0.0 0.0 0.00 0.08 0.08 79 982.3
20260503024006 39 316 0.0 0.0 0.00 0.08 0.08 79 982.3
20260503023905 39 316 0.0 0.0 0.00 0.08 0.08 79 982.3
20260503023806 39 316 0.0 0.0 0.00 0.08 0.08 79 982.3
20260503023703 39 316 0.0 0.0 0.00 0.08 0.08 79 982.4
20260503023620 39 316 0.0 0.0 0.00 0.08 0.08 79 982.4
20260503023601 40 316 0.0 0.0 0.00 0.08 0.08 79 982.4
20260503023457 40 316 0.0 0.0 0.00 0.08 0.08 79 982.4
20260503023356 40 316 0.0 0.0 0.00 0.08 0.08 79 982.4
20260503023256 40 316 0.0 0.0 0.00 0.08 0.08 78 982.4
20260503023155 40 316 0.0 0.0 0.00 0.08 0.08 78 982.4
20260503023122 40 316 0.0 0.0 0.00 0.08 0.08 78 982.4
20260503023055 40 316 0.0 0.0 0.00 0.08 0.08 78 982.4
20260503022953 40 316 0.0 0.0 0.00 0.08 0.08 78 982.4
20260503022854 40 316 0.0 0.0 0.00 0.08 0.08 78 982.4
20260503022753 40 316 0.0 0.0 0.00 0.08 0.08 78 982.4
20260503022652 40 316 0.0 0.0 0.00 0.08 0.08 78 982.4
20260503022619 40 316 0.0 0.0 0.00 0.08 0.08 78 982.4
20260503022549 40 316 0.0 0.0 0.00 0.08 0.08 78 982.4
20260503022447 40 316 0.0 0.0 0.00 0.08 0.08 78 982.4
20260503022347 40 316 0.0 0.0 0.00 0.08 0.08 78 982.4
20260503022248 40 316 0.0 0.0 0.00 0.08 0.08 78 982.4
20260503022117 40 316 0.0 0.0 0.00 0.08 0.08 78 982.4
20260503022043 40 316 0.0 0.0 0.00 0.08 0.08 78 982.4
20260503021938 40 316 0.0 0.0 0.00 0.08 0.08 78 982.4
20260503021838 40 316 0.0 0.0 0.00 0.08 0.08 78 982.4
20260503021737 40 316 0.0 0.0 0.00 0.08 0.08 78 982.4
20260503021616 40 316 0.0 0.0 0.00 0.08 0.08 77 982.4
20260503021538 40 316 0.0 0.0 0.00 0.08 0.08 77 982.4
20260503021431 40 316 0.0 0.0 0.00 0.08 0.08 77 982.4
20260503021330 40 316 0.0 0.0 0.00 0.08 0.08 77 982.4
20260503021231 40 316 0.0 0.0 0.00 0.08 0.08 77 982.4
20260503021118 40 316 0.0 0.0 0.00 0.08 0.08 77 982.4
20260503021031 40 316 0.0 0.0 0.00 0.08 0.08 77 982.4
20260503020927 40 316 0.0 0.0 0.00 0.08 0.08 76 982.4
20260503020826 40 316 0.0 0.0 0.00 0.08 0.08 76 982.4
20260503020725 40 316 0.0 0.0 0.00 0.08 0.08 76 982.4
20260503020617 40 316 0.0 0.0 0.00 0.08 0.08 76 982.4
20260503020525 40 316 0.0 0.0 0.00 0.08 0.08 76 982.4
20260503020421 40 316 0.0 0.0 0.00 0.08 0.08 76 982.4
20260503020319 40 316 0.0 0.0 0.00 0.08 0.08 76 982.4
20260503020219 40 316 0.0 0.0 0.00 0.08 0.08 76 982.4
20260503020120 40 316 0.0 0.0 0.00 0.08 0.08 76 982.4
20260503020116 40 316 0.0 0.0 0.00 0.08 0.08 75 982.4
20260503020019 40 316 0.0 0.0 0.00 0.08 0.08 75 982.4
20260503015919 40 316 0.0 0.0 0.00 0.08 0.08 75 982.4
20260503015818 40 316 0.0 0.0 0.00 0.08 0.08 75 982.4
20260503015714 40 316 0.0 0.0 0.00 0.08 0.08 75 982.4
20260503015616 40 316 0.0 0.0 0.00 0.08 0.08 75 982.4
20260503015513 40 316 0.0 0.0 0.00 0.08 0.08 75 982.4
20260503015411 40 316 0.0 0.0 0.00 0.08 0.08 74 982.4
20260503015311 40 316 0.0 0.0 0.00 0.08 0.08 74 982.4
20260503015212 40 316 0.0 0.0 0.00 0.08 0.08 74 982.4
20260503015109 40 316 0.0 0.0 0.00 0.08 0.08 74 982.4
20260503015007 40 316 0.0 1.7 0.00 0.08 0.08 74 982.4
20260503014902 40 316 0.0 1.7 0.00 0.08 0.08 74 982.4
20260503014801 40 316 0.0 1.7 0.00 0.08 0.08 74 982.4
20260503014700 40 316 0.0 1.7 0.00 0.08 0.08 73 982.4
20260503014610 40 316 0.0 1.7 0.00 0.08 0.08 73 982.3
20260503014602 40 316 0.0 1.7 0.00 0.08 0.08 73 982.3
20260503014500 40 316 0.0 1.7 0.00 0.08 0.08 73 982.4
20260503014400 40 316 0.0 1.7 0.00 0.08 0.08 73 982.4
20260503014259 40 316 0.0 1.7 0.00 0.08 0.08 73 982.4
20260503014159 41 316 0.0 1.7 0.00 0.08 0.08 73 982.4
20260503014108 41 316 0.0 1.7 0.00 0.08 0.08 72 982.4
20260503014057 41 316 0.0 1.7 0.00 0.08 0.08 72 982.4
20260503013955 41 316 0.0 1.7 0.00 0.08 0.08 72 982.3
20260503013854 41 316 0.0 1.7 0.00 0.08 0.08 72 982.4
20260503013831 41 316 0.0 1.7 0.00 0.08 0.08 71 982.3
20260503013753 41 316 0.0 1.7 0.00 0.08 0.08 71 982.4
20260503013719 41 316 0.0 1.7 0.00 0.08 0.08 71 982.3
20260503013552 41 316 0.0 1.7 0.00 0.08 0.08 71 982.3
20260503013449 41 316 0.0 1.7 0.00 0.08 0.08 71 982.4
20260503013345 41 316 0.0 1.7 0.00 0.08 0.08 71 982.3
20260503013324 41 316 0.0 1.7 0.00 0.08 0.08 70 982.4
20260503013244 41 316 0.0 1.7 0.00 0.08 0.08 70 982.4
20260503013217 41 316 0.0 1.7 0.00 0.08 0.08 70 982.4
20260503013044 41 316 0.0 1.7 0.00 0.08 0.08 70 982.4
20260503012943 41 316 0.0 1.7 0.00 0.08 0.08 70 982.4
20260503012843 41 316 0.9 1.7 0.00 0.08 0.08 70 982.3
20260503012742 41 316 0.9 1.7 0.00 0.08 0.08 69 982.3
20260503012638 41 316 0.9 1.7 0.00 0.08 0.08 69 982.3
20260503012606 41 316 0.9 1.7 0.00 0.08 0.08 69 982.3
20260503012539 41 316 0.9 1.7 0.00 0.08 0.08 69 982.3
20260503012437 41 316 0.9 1.7 0.00 0.08 0.08 69 982.3
20260503012336 41 316 0.9 1.7 0.00 0.08 0.08 68 982.3
20260503012325 41 316 0.0 1.7 0.00 0.08 0.08 68 982.3
20260503012234 41 316 0.9 1.7 0.00 0.08 0.08 68 982.3
20260503012214 41 316 0.9 1.7 0.00 0.08 0.08 68 982.3
20260503012032 41 316 0.0 1.7 0.00 0.08 0.08 68 982.3
20260503011930 41 316 0.0 1.7 0.00 0.08 0.08 68 982.3
20260503011826 41 316 0.0 1.7 0.00 0.08 0.08 68 982.3
20260503011726 41 316 0.0 1.7 0.00 0.08 0.08 68 982.3
20260503011605 41 316 0.0 1.7 0.00 0.08 0.08 68 982.3
20260503011525 41 316 0.0 1.7 0.00 0.08 0.08 68 982.3
20260503011423 41 316 0.0 1.7 0.00 0.08 0.08 68 982.3
20260503011318 41 316 0.0 1.7 0.00 0.08 0.08 68 982.3
20260503011219 41 316 0.0 1.7 0.00 0.08 0.08 68 982.3
20260503011119 41 316 0.0 1.7 0.00 0.08 0.08 67 982.3
20260503011101 41 316 0.0 1.7 0.00 0.08 0.08 67 982.3
20260503011020 41 316 0.0 1.7 0.00 0.08 0.08 67 982.3
20260503010917 41 316 0.0 1.7 0.00 0.08 0.08 67 982.2
20260503010814 41 316 0.0 1.7 0.00 0.08 0.08 67 982.2
20260503010715 41 316 0.0 1.7 0.00 0.08 0.08 67 982.2
20260503010616 41 316 0.0 1.7 0.00 0.08 0.08 67 982.2
20260503010553 41 316 0.0 1.7 0.00 0.08 0.08 67 982.2
20260503010512 41 316 0.0 1.7 0.00 0.08 0.08 68 982.2
20260503010411 41 5 0.0 1.7 0.00 0.08 0.08 68 982.2
20260503010304 41 5 0.0 1.7 0.00 0.08 0.08 68 982.2
20260503010205 41 5 0.0 1.7 0.00 0.08 0.08 68 982.2
20260503010106 41 5 0.0 1.7 0.00 0.08 0.08 67 982.3
20260503010046 41 9 0.0 1.7 0.00 0.08 0.08 67 982.3
20260503010004 41 5 0.0 1.7 0.00 0.08 0.08 67 982.2
20260503005905 41 5 0.0 1.7 0.00 0.08 0.08 67 982.2
20260503005801 41 9 0.0 1.7 0.00 0.08 0.08 67 982.2
20260503005700 41 9 0.0 1.7 0.00 0.08 0.08 67 982.2
20260503005540 41 5 0.0 1.7 0.00 0.08 0.08 66 982.2
20260503005456 41 9 0.0 1.7 0.00 0.08 0.08 66 982.2
20260503005357 41 5 0.0 1.7 0.00 0.08 0.08 66 982.2
20260503005300 42 5 0.0 1.7 0.00 0.08 0.08 66 982.2
20260503005253 41 5 0.0 1.7 0.00 0.08 0.08 66 982.2
20260503005155 41 9 0.0 1.7 0.00 0.08 0.08 66 982.2
20260503005140 42 9 0.0 1.7 0.00 0.08 0.08 66 982.2
20260503004950 42 5 0.0 1.7 0.00 0.08 0.08 66 982.2
20260503004851 42 5 0.0 1.7 0.00 0.08 0.08 67 982.2
20260503004752 42 5 0.0 1.7 0.00 0.08 0.08 67 982.1
20260503004648 42 5 0.0 1.7 0.00 0.08 0.08 67 982.2
20260503004528 42 5 0.0 1.7 0.00 0.08 0.08 66 982.1
20260503004447 42 5 0.0 1.7 0.00 0.08 0.08 66 982.1
20260503004345 42 5 0.0 1.7 0.00 0.08 0.08 66 982.1
20260503004241 42 5 0.0 1.7 0.00 0.08 0.08 66 982.1
20260503004140 42 9 0.0 1.7 0.00 0.08 0.08 66 982.1
20260503004040 42 9 0.0 1.7 0.00 0.08 0.08 65 982.1
20260503004021 42 5 0.0 1.7 0.00 0.08 0.08 65 982.0
20260503003941 42 5 0.9 1.7 0.00 0.08 0.08 65 982.0
20260503003839 42 5 0.9 1.7 0.00 0.08 0.08 65 982.0
20260503003736 42 5 0.0 1.7 0.00 0.08 0.08 65 982.0
20260503003536 42 355 0.0 1.7 0.00 0.08 0.08 65 982.0
20260503003516 42 5 0.0 1.7 0.00 0.08 0.08 65 982.0
20260503003333 42 5 0.0 1.7 0.00 0.08 0.08 65 982.0
20260503003231 42 5 0.0 1.7 0.00 0.08 0.08 65 982.0
20260503003132 42 5 0.0 1.7 0.00 0.08 0.08 65 981.9
20260503003031 42 5 0.0 1.7 0.00 0.08 0.08 65 982.0
20260503003009 42 0 0.0 1.7 0.00 0.08 0.08 65 981.9
20260503002929 42 355 0.0 1.7 0.00 0.08 0.08 65 981.9
20260503002827 42 355 0.0 1.7 0.00 0.08 0.08 65 981.9
20260503002720 42 26 0.0 1.7 0.00 0.08 0.08 65 981.9
20260503002622 42 26 0.0 7.0 0.00 0.08 0.08 65 981.9
20260503002503 42 317 0.0 7.0 0.00 0.08 0.08 65 981.9
20260503002420 42 317 0.0 7.0 0.00 0.08 0.08 65 981.9
20260503002321 42 317 0.9 7.0 0.00 0.08 0.08 65 981.9
20260503002219 42 23 0.9 7.0 0.00 0.08 0.08 65 981.9
20260503002215 42 23 0.9 7.0 0.00 0.08 0.08 65 981.9
20260503002119 42 23 0.9 7.0 0.00 0.08 0.08 65 981.9
20260503002105 42 23 0.9 7.0 0.00 0.08 0.08 65 981.9
20260503001917 42 23 0.9 7.0 0.00 0.08 0.08 65 981.9
20260503001815 42 23 0.9 7.0 0.00 0.08 0.08 65 981.9
20260503001716 42 23 1.7 7.0 0.00 0.08 0.08 64 981.9
20260503001612 42 23 1.7 7.0 0.00 0.08 0.08 64 981.9
20260503001513 42 31 1.7 7.0 0.00 0.08 0.08 64 982.0
20260503001452 42 289 1.7 7.0 0.00 0.08 0.08 63 982.0
20260503001411 42 32 1.7 7.0 0.00 0.08 0.08 63 981.9
20260503001309 42 19 1.7 7.0 0.00 0.08 0.08 63 982.0
20260503001204 42 335 1.7 7.0 0.00 0.08 0.08 62 981.9
20260503001104 42 335 1.7 7.0 0.00 0.08 0.08 62 981.9
20260503001004 43 335 1.7 7.0 0.00 0.08 0.08 62 981.9
20260503000946 43 335 1.7 7.0 0.00 0.08 0.08 62 981.9
20260503000902 43 331 1.7 7.0 0.00 0.08 0.08 62 981.9
20260503000803 43 355 1.7 7.0 0.00 0.08 0.08 62 981.9
20260503000704 43 288 0.9 2.6 0.00 0.08 0.08 64 981.9
20260503000658 43 17 0.9 7.0 0.00 0.08 0.08 63 981.9
20260503000600 43 36 0.9 4.3 0.00 0.08 0.08 63 981.9
20260503000546 43 355 0.9 4.3 0.00 0.08 0.08 64 981.9
20260503000400 43 313 0.9 2.6 0.00 0.08 0.08 64 981.9
20260503000257 43 278 0.0 1.7 0.00 0.08 0.08 64 981.9
20260503000157 43 5 0.9 1.7 0.00 0.08 0.08 64 981.9
20260503000055 43 5 0.9 2.6 0.00 0.08 0.08 63 981.9
20260502235933 43 332 0.9 4.3 0.00 0.08 0.08 64 981.8
20260502235854 43 332 0.9 4.3 0.00 0.08 0.08 64 981.7
20260502235750 43 332 0.9 4.3 0.00 0.08 0.08 64 981.7
20260502235651 43 332 0.9 4.3 0.00 0.08 0.08 64 981.7
20260502235549 43 332 0.9 4.3 0.00 0.08 0.08 64 981.7
20260502235448 43 350 0.9 4.3 0.00 0.08 0.08 63 981.7
20260502235427 43 346 0.9 4.3 0.00 0.08 0.08 63 981.7
20260502235348 43 346 0.9 4.3 0.00 0.08 0.08 63 981.7
20260502235245 43 345 0.9 4.3 0.00 0.08 0.08 62 981.7
20260502235146 43 345 0.9 4.3 0.00 0.08 0.08 62 981.7
20260502235043 43 293 0.9 4.3 0.00 0.08 0.08 62 981.6
20260502234920 43 293 0.9 4.3 0.00 0.08 0.08 62 981.7
20260502234842 43 355 0.9 4.3 0.00 0.08 0.08 62 981.7
20260502234738 43 355 0.9 4.3 0.00 0.08 0.08 62 981.7
20260502234636 43 355 0.9 4.3 0.00 0.08 0.08 62 981.7
20260502234538 43 22 0.9 4.3 0.00 0.08 0.08 61 981.7
20260502234415 43 22 0.9 4.3 0.00 0.08 0.08 61 981.7
20260502234335 43 355 0.9 4.3 0.00 0.08 0.08 61 981.7
20260502234233 43 333 0.9 4.3 0.00 0.08 0.08 62 981.7
20260502234132 43 324 0.9 4.3 0.00 0.08 0.08 62 981.7
20260502234031 43 355 0.9 3.5 0.00 0.08 0.08 62 981.7
20260502233928 43 348 0.9 3.5 0.00 0.08 0.08 62 981.7
20260502233909 43 355 0.9 3.5 0.00 0.08 0.08 62 981.7
20260502233829 43 5 0.9 3.5 0.00 0.08 0.08 62 981.7
20260502233727 43 350 0.9 3.5 0.00 0.08 0.08 62 981.6
20260502233624 43 336 0.9 3.5 0.00 0.08 0.08 63 981.6
20260502233526 43 15 0.9 3.5 0.00 0.08 0.08 63 981.7
20260502233422 43 15 0.9 3.5 0.00 0.08 0.08 63 981.7
20260502233403 43 15 0.9 3.5 0.00 0.08 0.08 63 981.6
20260502233324 43 308 0.9 3.5 0.00 0.08 0.08 62 981.6
20260502233220 43 308 0.9 5.2 0.00 0.08 0.08 62 981.5
20260502233115 43 308 1.7 5.2 0.00 0.08 0.08 61 981.6
20260502233016 44 308 1.7 5.2 0.00 0.08 0.08 61 981.6
20260502232914 44 337 1.7 5.2 0.00 0.08 0.08 62 981.6
20260502232857 44 337 1.7 5.2 0.00 0.08 0.08 62 981.6
20260502232814 44 336 1.7 5.2 0.00 0.08 0.08 62 981.6
20260502232715 44 330 1.7 5.2 0.00 0.08 0.08 62 981.6
20260502232610 44 330 1.7 5.2 0.00 0.08 0.08 61 981.6
20260502232510 44 330 1.7 5.2 0.00 0.08 0.08 61 981.6
20260502232411 44 327 1.7 5.2 0.00 0.08 0.08 61 981.6
20260502232352 44 336 1.7 5.2 0.00 0.08 0.08 61 981.6
20260502232311 44 334 0.9 5.2 0.00 0.08 0.08 62 981.6
20260502232209 44 273 0.9 3.5 0.00 0.08 0.08 62 981.6
20260502232105 44 342 0.9 3.5 0.00 0.08 0.08 62 981.7
20260502232051 44 336 0.9 3.5 0.00 0.09 0.08 63 981.6
20260502232004 44 24 0.9 3.5 0.00 0.08 0.08 62 981.6
20260502231947 44 332 0.9 3.5 0.00 0.09 0.08 62 981.5
20260502231940 44 327 0.9 3.5 0.00 0.09 0.08 62 981.5
20260502231804 44 307 0.9 3.5 0.00 0.09 0.08 62 981.6
20260502231717 44 325 0.9 3.5 0.00 0.09 0.08 62 981.6
20260502231558 44 325 0.9 3.5 0.00 0.09 0.08 62 981.5
20260502231501 44 271 0.9 3.5 0.00 0.09 0.08 62 981.5
20260502231447 44 306 0.9 3.5 0.00 0.09 0.08 63 981.6
20260502231258 44 319 0.9 3.5 0.00 0.09 0.08 63 981.5
20260502231156 44 319 0.9 3.5 0.00 0.09 0.08 63 981.5
20260502231103 44 334 0.9 3.5 0.00 0.09 0.08 62 981.5
20260502231056 44 334 0.9 3.5 0.00 0.09 0.08 63 981.5
20260502230955 44 334 0.9 3.5 0.00 0.09 0.08 63 981.5
20260502230941 44 334 0.9 3.5 0.00 0.09 0.08 62 981.5
20260502230753 44 342 0.9 3.5 0.00 0.09 0.08 62 981.5
20260502230650 44 319 0.9 3.5 0.00 0.10 0.08 62 981.5
20260502230550 44 319 0.9 3.5 0.00 0.10 0.08 62 981.5
20260502230448 44 348 0.9 3.5 0.00 0.10 0.08 62 981.5
20260502230348 44 17 0.9 3.5 0.00 0.10 0.08 62 981.5
20260502230327 44 13 0.9 3.5 0.00 0.10 0.08 63 981.6
20260502230247 44 328 0.9 3.5 0.00 0.10 0.08 63 981.6
20260502230145 44 302 0.9 3.5 0.00 0.11 0.08 64 981.6
20260502230043 44 302 1.7 3.5 0.00 0.11 0.08 63 981.6
20260502225942 44 302 1.7 3.5 0.00 0.11 0.08 62 981.6
20260502225843 44 305 1.7 3.5 0.00 0.11 0.08 63 981.6
20260502225822 44 290 1.7 4.3 0.00 0.11 0.08 63 981.6
20260502225740 44 339 1.7 4.3 0.00 0.11 0.08 63 981.6
20260502225639 44 0 1.7 4.3 0.00 0.11 0.08 63 981.6
20260502225539 44 0 1.7 4.3 0.00 0.11 0.08 63 981.7
20260502225436 44 302 1.7 4.3 0.00 0.12 0.08 63 981.6
20260502225337 44 302 1.7 5.2 0.00 0.12 0.08 62 981.6
20260502225315 44 302 1.7 5.2 0.00 0.12 0.08 62 981.7
20260502225235 44 294 1.7 5.2 0.00 0.12 0.08 62 981.7
20260502225133 44 316 1.7 5.2 0.00 0.12 0.08 62 981.6
20260502225029 44 327 1.7 5.2 0.00 0.12 0.08 65 981.7
20260502224928 44 313 1.7 5.2 0.00 0.12 0.08 65 981.6
20260502224828 44 5 1.7 5.2 0.00 0.12 0.08 65 981.6
20260502224809 44 325 1.7 5.2 0.00 0.13 0.08 65 981.6
20260502224727 44 329 1.7 5.2 0.00 0.13 0.08 65 981.6
20260502224627 44 315 1.7 5.2 0.00 0.13 0.08 65 981.5
20260502224522 44 327 0.9 5.2 0.00 0.13 0.08 65 981.6
20260502224420 44 277 0.9 5.2 0.00 0.13 0.08 65 981.6
20260502224321 44 309 0.9 5.2 0.00 0.13 0.08 65 981.5
20260502224303 44 30 1.7 5.2 0.00 0.13 0.08 65 981.5
20260502224221 44 328 1.7 5.2 0.00 0.13 0.08 65 981.6
20260502224122 44 305 1.7 5.2 0.00 0.14 0.08 65 981.5
20260502224017 44 305 1.7 5.2 0.00 0.14 0.08 65 981.5
20260502223914 44 305 1.7 5.2 0.00 0.14 0.08 65 981.6
20260502223815 44 316 1.7 5.2 0.00 0.14 0.08 65 981.5
20260502223758 44 316 1.7 5.2 0.00 0.14 0.08 65 981.5
20260502223714 44 321 1.7 5.2 0.00 0.14 0.08 65 981.5
20260502223616 44 266 1.7 5.2 0.00 0.14 0.08 66 981.5
20260502223510 44 308 1.7 5.2 0.00 0.15 0.08 65 981.5
20260502223411 44 325 1.7 5.2 0.00 0.15 0.08 65 981.5
20260502223312 44 300 0.9 5.2 0.00 0.16 0.08 67 981.5
20260502223252 44 325 0.9 5.2 0.00 0.16 0.08 67 981.5
20260502223211 44 332 1.7 5.2 0.00 0.17 0.08 67 981.5
20260502223109 44 355 1.7 5.2 0.00 0.17 0.08 67 981.5
20260502223016 44 29 1.7 5.2 0.00 0.18 0.08 67 981.5
20260502223009 44 13 1.7 5.2 0.00 0.17 0.08 66 981.5
20260502222907 44 14 1.7 5.2 0.00 0.17 0.08 67 981.5
20260502222853 44 355 1.7 5.2 0.00 0.18 0.08 67 981.5
20260502222705 44 323 1.7 5.2 0.00 0.18 0.08 66 981.5
20260502222604 44 325 1.7 5.2 0.00 0.18 0.08 66 981.5
20260502222459 44 351 1.7 5.2 0.00 0.18 0.08 66 981.5
20260502222356 44 324 1.7 5.2 0.00 0.18 0.08 67 981.5
20260502222240 44 322 1.7 5.2 0.00 0.18 0.08 67 981.5
20260502222156 44 310 1.7 5.2 0.00 0.18 0.08 67 981.5
20260502222057 44 317 1.7 5.2 0.00 0.18 0.08 67 981.5
20260502222001 44 301 1.7 4.3 0.00 0.18 0.08 67 981.5
20260502221950 44 298 0.9 4.3 0.00 0.18 0.08 67 981.5
20260502221855 44 308 1.7 4.3 0.00 0.18 0.08 68 981.5
20260502221842 44 321 1.7 4.3 0.00 0.18 0.08 68 981.5
20260502221650 44 309 1.7 4.3 0.00 0.18 0.08 67 981.5
20260502221551 44 247 0.9 4.3 0.00 0.18 0.08 68 981.5
20260502221452 44 319 0.9 3.5 0.00 0.18 0.08 67 981.5
20260502221348 44 319 0.9 3.5 0.00 0.18 0.08 67 981.5
20260502221226 44 319 0.9 3.5 0.00 0.18 0.08 67 981.5
20260502221148 44 319 0.9 3.5 0.00 0.18 0.08 66 981.5
20260502221045 44 350 0.9 3.5 0.00 0.18 0.08 66 981.5
20260502220939 44 340 0.9 3.5 0.00 0.18 0.08 67 981.5
20260502220839 44 334 0.9 2.6 0.00 0.18 0.08 67 981.5
20260502220738 44 308 0.9 2.6 0.00 0.18 0.08 67 981.5
20260502220721 44 307 0.9 2.6 0.00 0.18 0.08 67 981.6
20260502220639 44 319 0.0 2.6 0.00 0.18 0.08 67 981.6
20260502220539 44 17 0.9 3.5 0.00 0.18 0.08 68 981.6
20260502220438 44 17 0.9 5.2 0.00 0.18 0.08 67 981.6
20260502220336 44 17 0.9 5.2 0.00 0.18 0.08 67 981.6
20260502220237 44 17 0.9 5.2 0.00 0.18 0.08 67 981.6
20260502220215 44 17 0.9 5.2 0.00 0.18 0.08 67 981.5
20260502220134 44 17 0.9 5.2 0.00 0.18 0.08 67 981.5
20260502220033 44 17 0.9 5.2 0.00 0.18 0.08 67 981.5
20260502215933 44 15 0.9 5.2 0.00 0.18 0.08 67 981.5
20260502215835 44 342 0.9 5.2 0.00 0.18 0.08 67 981.6
20260502215730 44 351 0.9 5.2 0.00 0.18 0.08 67 981.5
20260502215710 44 351 0.9 5.2 0.00 0.18 0.08 67 981.6
20260502215630 44 351 0.9 5.2 0.00 0.18 0.08 67 981.6
20260502215527 44 334 0.9 3.5 0.00 0.18 0.08 67 981.5
20260502215422 44 334 0.9 3.5 0.00 0.18 0.08 67 981.5
20260502215323 44 305 0.9 3.5 0.00 0.18 0.08 66 981.5
20260502215222 44 321 0.9 3.5 0.00 0.18 0.08 67 981.5
20260502215203 44 311 0.9 3.5 0.00 0.18 0.08 67 981.5
20260502215123 44 325 0.9 3.5 0.00 0.18 0.08 67 981.5
20260502215021 44 325 0.9 3.5 0.00 0.18 0.08 66 981.5
20260502214920 44 317 0.9 3.5 0.00 0.18 0.08 66 981.5
20260502214818 44 9 0.9 3.5 0.00 0.18 0.08 66 981.4
20260502214719 44 5 0.9 3.5 0.00 0.18 0.08 67 981.4
20260502214658 44 5 0.9 3.5 0.00 0.18 0.08 67 981.4
20260502214618 44 333 0.9 3.5 0.00 0.18 0.08 67 981.5
20260502214516 44 350 0.9 3.5 0.00 0.18 0.08 67 981.5
20260502214408 44 350 0.9 7.8 0.00 0.18 0.08 66 981.5
20260502214309 44 344 1.7 7.8 0.00 0.18 0.08 66 981.5
20260502214209 44 17 1.7 7.8 0.00 0.18 0.08 66 981.4
20260502214152 44 17 1.7 7.8 0.00 0.18 0.08 66 981.4
20260502214110 44 14 1.7 7.8 0.00 0.18 0.08 66 981.5
20260502214008 44 325 1.7 7.8 0.00 0.18 0.08 66 981.5
20260502213904 44 322 1.7 7.8 0.00 0.18 0.08 66 981.5
20260502213804 44 55 1.7 7.8 0.00 0.18 0.08 65 981.4
20260502213703 44 9 1.7 7.8 0.00 0.18 0.08 65 981.4
20260502213646 44 9 1.7 7.8 0.00 0.18 0.08 65 981.4
20260502213603 44 10 1.7 7.8 0.00 0.18 0.08 65 981.4
20260502213503 44 319 2.6 7.8 0.00 0.18 0.08 65 981.5
20260502213401 44 26 2.6 7.8 0.00 0.18 0.08 65 981.4
20260502213356 44 319 2.6 7.8 0.00 0.18 0.08 65 981.5
20260502213303 44 288 2.6 7.8 0.00 0.18 0.08 65 981.5
20260502213248 45 305 2.6 7.8 0.00 0.18 0.08 66 981.5
20260502213056 44 309 2.6 7.8 0.00 0.18 0.08 65 981.5
20260502212957 45 330 2.6 7.8 0.00 0.18 0.08 65 981.4
20260502212854 45 11 2.6 7.8 0.00 0.18 0.08 64 981.5
20260502212754 45 311 2.6 7.8 0.00 0.18 0.08 64 981.5
20260502212655 45 309 2.6 7.8 0.00 0.18 0.08 64 981.4
20260502212633 45 310 2.6 7.8 0.00 0.18 0.08 64 981.4
20260502212553 45 325 2.6 7.8 0.00 0.18 0.08 64 981.4
20260502212451 45 9 2.6 7.8 0.00 0.18 0.08 64 981.4
20260502212350 45 299 2.6 5.2 0.00 0.18 0.08 64 981.4
20260502212248 45 336 2.6 5.2 0.00 0.18 0.08 64 981.4
20260502212149 45 329 2.6 5.2 0.00 0.18 0.08 64 981.4
20260502212127 45 29 2.6 5.2 0.00 0.18 0.08 64 981.4
20260502212047 45 351 2.6 5.2 0.00 0.18 0.08 64 981.4
20260502211945 45 279 2.6 5.2 0.00 0.18 0.08 64 981.3
20260502211840 45 310 1.7 5.2 0.00 0.18 0.08 63 981.3
20260502211740 45 307 1.7 5.2 0.00 0.18 0.08 63 981.3
20260502211640 45 321 1.7 5.2 0.00 0.18 0.08 63 981.3
20260502211620 45 295 1.7 4.3 0.00 0.18 0.08 63 981.3
20260502211540 45 336 1.7 4.3 0.00 0.18 0.08 63 981.3
20260502211439 45 329 1.7 7.0 0.00 0.18 0.08 63 981.3
20260502211341 46 292 0.9 7.0 0.00 0.18 0.08 63 981.2
20260502211336 46 9 1.7 7.0 0.00 0.18 0.08 63 981.3
20260502211237 46 24 0.9 7.0 0.00 0.18 0.08 63 981.3
20260502211222 46 341 0.9 7.0 0.00 0.18 0.08 63 981.3
20260502211036 46 333 0.9 7.0 0.00 0.18 0.08 63 981.2
20260502210933 46 5 0.9 7.0 0.00 0.18 0.08 63 981.2
20260502210826 46 9 0.9 7.0 0.00 0.18 0.08 63 981.2
20260502210726 46 17 0.9 7.0 0.00 0.18 0.08 63 981.2
20260502210628 46 36 0.9 7.0 0.00 0.18 0.08 63 981.2
20260502210609 46 306 0.9 7.0 0.00 0.18 0.08 63 981.2
20260502210526 46 25 0.9 7.0 0.00 0.18 0.08 63 981.2
20260502210427 46 0 0.9 7.0 0.00 0.18 0.08 63 981.2
20260502210327 46 38 0.9 7.0 0.00 0.18 0.08 63 981.2
20260502210256 46 23 0.9 7.0 0.00 0.18 0.08 63 981.2
20260502210224 46 23 0.9 7.0 0.00 0.18 0.08 63 981.2
20260502210124 46 26 0.9 7.0 0.00 0.18 0.08 63 981.2
20260502210104 46 24 0.9 7.0 0.00 0.18 0.08 63 981.2
20260502210024 46 355 0.9 7.0 0.00 0.18 0.08 63 981.2
20260502205920 46 38 0.9 7.0 0.00 0.18 0.08 63 981.2
20260502205814 46 338 1.7 7.0 0.00 0.18 0.08 63 981.2
20260502205715 46 58 1.7 7.0 0.00 0.18 0.08 63 981.2
20260502205616 46 5 1.7 7.0 0.00 0.18 0.08 63 981.2
20260502205557 46 82 1.7 7.0 0.00 0.18 0.08 63 981.2
20260502205545 47 339 1.7 7.0 0.00 0.18 0.08 62 981.2
20260502205515 46 332 1.7 7.0 0.00 0.18 0.08 63 981.2
20260502205435 46 311 1.7 7.0 0.00 0.18 0.08 63 981.2
20260502205310 46 55 1.7 7.0 0.00 0.18 0.08 64 981.2
20260502205213 46 315 1.7 7.0 0.00 0.18 0.08 64 981.2
20260502205159 46 31 1.7 7.0 0.00 0.18 0.08 62 981.2
20260502205011 46 339 1.7 7.0 0.00 0.18 0.08 62 981.2
20260502204909 47 304 1.7 7.0 0.00 0.18 0.08 62 981.2
20260502204808 47 308 0.9 7.0 0.00 0.18 0.08 62 981.2
20260502204707 47 37 0.9 7.0 0.00 0.18 0.08 63 981.2
20260502204605 47 341 0.9 7.0 0.00 0.18 0.08 64 981.2
20260502204545 47 329 0.9 3.5 0.00 0.18 0.08 64 981.2
20260502204505 47 305 0.9 5.2 0.00 0.18 0.08 64 981.2
20260502204403 47 241 0.9 5.2 0.00 0.18 0.08 64 981.2
20260502204304 47 12 0.9 5.2 0.00 0.18 0.08 64 981.3
20260502204257 47 338 0.9 5.2 0.00 0.18 0.08 65 981.2
20260502204200 47 332 0.9 5.2 0.00 0.18 0.08 64 981.2
20260502204145 47 12 0.9 5.2 0.00 0.18 0.08 64 981.3
20260502203957 47 12 0.9 5.2 0.00 0.18 0.08 64 981.2
20260502203856 47 10 1.7 5.2 0.00 0.18 0.08 64 981.3
20260502203803 47 0 1.7 5.2 0.00 0.18 0.08 64 981.3
20260502203756 47 10 1.7 5.2 0.00 0.18 0.08 63 981.3
20260502203656 47 5 1.7 5.2 0.00 0.18 0.08 63 981.3
20260502203640 47 333 1.7 5.2 0.00 0.18 0.08 63 981.3
20260502203453 47 340 1.7 4.3 0.00 0.18 0.08 64 981.3
20260502203350 47 5 1.7 4.3 0.00 0.18 0.08 64 981.3
20260502203253 47 27 1.7 4.3 0.00 0.18 0.08 63 981.2
20260502203246 47 0 1.7 4.3 0.00 0.18 0.08 64 981.3
20260502203150 47 26 1.7 4.3 0.00 0.18 0.08 64 981.3
20260502203134 47 5 1.7 4.3 0.00 0.18 0.08 63 981.2
20260502202945 47 355 1.7 4.3 0.00 0.18 0.08 64 981.2
20260502202844 47 304 0.9 4.3 0.00 0.18 0.08 64 981.3
20260502202743 47 5 0.9 4.3 0.00 0.18 0.08 64 981.3
20260502202642 47 22 0.9 4.3 0.00 0.18 0.08 64 981.2
20260502202543 47 28 0.9 4.3 0.00 0.18 0.08 65 981.3
20260502202521 47 17 0.9 3.5 0.00 0.18 0.08 65 981.3
20260502202442 47 26 0.9 3.5 0.00 0.18 0.08 66 981.3
20260502202339 46 346 0.9 3.5 0.00 0.19 0.08 66 981.3
20260502202239 46 346 0.9 3.5 0.00 0.19 0.08 65 981.2
20260502202135 46 84 1.7 8.7 0.00 0.19 0.08 65 981.3
20260502202018 46 49 1.7 8.7 0.00 0.19 0.08 66 981.3
20260502201934 46 49 1.7 8.7 0.00 0.19 0.08 66 981.3
20260502201833 46 69 1.7 8.7 0.00 0.19 0.08 66 981.3
20260502201729 46 12 2.6 8.7 0.00 0.19 0.08 67 981.3
20260502201625 46 38 2.6 8.7 0.00 0.19 0.08 67 981.3
20260502201518 46 34 2.6 8.7 0.00 0.19 0.08 67 981.4
20260502201426 46 17 2.6 8.7 0.00 0.19 0.08 67 981.4
20260502201327 46 0 2.6 9.6 0.00 0.19 0.08 66 981.3
20260502201240 45 30 2.6 9.6 0.00 0.19 0.08 67 981.4
20260502201221 45 332 2.6 9.6 0.00 0.19 0.08 68 981.3
20260502201139 45 319 2.6 9.6 0.00 0.19 0.08 68 981.3
20260502201125 45 30 2.6 9.6 0.00 0.19 0.08 67 981.4
20260502200920 45 292 2.6 9.6 0.00 0.19 0.08 67 981.4
20260502200821 45 355 1.7 9.6 0.00 0.19 0.08 68 981.4
20260502200716 45 349 1.7 9.6 0.00 0.19 0.08 67 981.4
20260502200615 45 338 1.7 9.6 0.00 0.19 0.08 67 981.4
20260502200520 45 323 1.7 9.6 0.00 0.19 0.08 67 981.4
20260502200515 45 329 1.7 9.6 0.00 0.19 0.08 67 981.4